Location: Sears
(37.7625°N, 100.1060°W)
Time: 21:28:46
(UTC+00:00)

Envisat - Pass Details

Date: 29 October 2020
Orbit: 764 x 766 km, 98.1° (Epoch: 01 December)

Event Time Altitude Azimuth Distance (km) Brightness Sun altitude
Rises 12:27:13 0° 15° (NNE) 3,238 6.3 -7.7°
Reaches altitude 10° 12:29:33 10° 18° (NNE) 2,308 5.6 -7.3°
Maximum altitude 12:34:37 69° 102° (ESE) 818 3.5 -6.3°
Drops below altitude 10° 12:39:39 10° 185° (S) 2,291 5.6 -5.3°
Sets 12:41:57 0° 188° (S) 3,213 6.3 -4.9°
